Location: Boćki
(52.6512°N, 23.0459°E)
Time: 06:38:25
(UTC+01:00)

ISS - Pass Details

Date: 28 January 2019
Orbit: 403 x 411 km, 51.6° (Epoch: 23 February)

Event Time Altitude Azimuth Distance (km) Brightness Sun altitude
Rises 17:30:06 0° 239° (WSW) 2,329 1.6 -12.8°
Reaches altitude 10° 17:32:14 10° 233° (SW) 1,472 0.1 -13.1°
Maximum altitude 17:35:24 44° 160° (SSE) 579 -3.2 -13.5°
Enters shadow 17:36:55 25° 101° (ESE) 874 -2.7 -13.8°
